Regional Weather Roundup
Issued by NWS

Home | Current Version | Previous Version | Text Only | Print | Product List | Glossary Off
Versions: 1 2 3 4 5 6 7 8 9 10 11 12 13 14 15 16 17 18 19 20 21 22 23 24 25 26 27 28 29 30 31 32 33 34 35 36 37 38 39 40 41 42 43 44 45 46 47 48 49 50

098
ASUS44 KLIX 280705
RWRLA
LOUISIANA WEATHER ROUNDUP
NATIONAL WEATHER SERVICE NEW ORLEANS LA
100 AM CST SAT FEB 28 2015

NOTE: "FAIR" INDICATES FEW OR NO CLOUDS BELOW 12,000 FEET WITH NO
      SIGNIFICANT WEATHER AND/OR OBSTRUCTIONS TO VISIBILITY.
      SKY/WX - SKY CONDITION AND SIGNIFICANT WEATHER.
      TMP - AIR TEMPERATURE.    DP   - DEWPOINT TEMPERATURE.
      RH  - RELATIVE HUMIDITY.  PRES - PRESSURE.
      HX  - HEAT INDEX.         WCI  - WIND CHILL INDEX.

*  THESE STATIONS ARE NOT NWS OR FAA STATIONS AND ARE NOT UNDER
   NWS QUALITY CONTROL.

LAZ040-048-061>063-065-066-069-280800-
SOUTHEAST LOUISIANA

CITY           SKY/WX    TMP DP  RH WIND       PRES   REMARKS
N.O. AUDUBON     N/A     44  33  65 MISG        N/A
N.O. INTL ARPT MOCLDY    45  31  58 NE10      30.39F
N.O. LAKEFRONT CLEAR     48  32  53 NE18      30.39F
SLIDELL        CLEAR     34  31  88 N6        30.39F WCI  29
BATON ROUGE    CLEAR     35  29  78 NE5       30.41F WCI  31
BOOTHVILLE     PTCLDY    50  41  71 NE9G17    30.35F
BELLE CHASSE   PTCLDY    44  31  60 NE8       30.38S
BOGALUSA*        N/A     36  29  77 N5        30.44R WCI  32
GALLIANO*      SUNNY     41  35  80 N5        30.38S
NEW ROADS*     FAIR      32  27  82 N5        30.43F WCI  27
GONZALES*      FAIR      39  32  74 NE3       30.40S
HAMMOND*       CLEAR     36  30  80 CALM      30.42S
HOUMA*         CLEAR     39  34  82 N7        30.38S HAZE    WCI  34
PORT FOURCHON* MOSUNNY   46  37  71 N13       30.39F

$$

LAZ041-044-053-054-280800-
SOUTHWEST LOUISIANA

CITY           SKY/WX    TMP DP  RH WIND       PRES   REMARKS
LAKE CHARLES   CLEAR     35  27  72 NE22      30.37F WCI  23
LAFAYETTE      CLEAR     34  29  82 NE8       30.41F WCI  27
PATTERSON      CLEAR     41  32  70 N8        30.40S
SALT POINT       N/A     40  34  79 N3        30.38F
NEW IBERIA     CLEAR     37  30  75 NE10      30.41F WCI  30
CHENAULT AIRPK CLEAR     34  28  79 NE12G18   30.38F WCI  25

$$

LAZ027-028-280800-
CENTRAL LOUISIANA

CITY           SKY/WX    TMP DP  RH WIND       PRES   REMARKS
FORT POLK      MOCLDY    32  26  78 E8        30.39F WCI  25
ALEXANDRIA INT MOCLDY    33  26  75 N5        30.45R WCI  29
ALEXANDRIA     CLEAR     33  25  72 VRB3      30.45S

$$

LAZ001-002-280800-
NORTHWEST LOUISIANA

CITY           SKY/WX    TMP DP  RH WIND       PRES   REMARKS
SHREVEPORT     CLOUDY    33  22  63 NE8       30.44F WCI  26
BARKSDALE AFB  CLOUDY    32  22  66 NE6       30.45F WCI  26
DTN SHREVEPORT CLOUDY    32  20  61 NE8       30.46F WCI  25

$$

LAZ014-016-280800-
NORTHEAST LOUISIANA

CITY           SKY/WX    TMP DP  RH WIND       PRES   REMARKS
MONROE         CLOUDY    32  25  75 NE9       30.49F WCI  24
TALLULAH       CLOUDY    34  26  72 N6        30.47S WCI  29

$$




USA.gov is the U.S. government's official web portal to all federal, state and local government web resources and services.